Regional Weather Roundup
Issued by NWS Portland, ME

Home | Current Version | Previous Version | Text Only | Print | Product List | Glossary On
Versions: 1 2 3 4 5 6 7 8 9 10 11 12 13 14 15 16 17 18 19 20 21 22 23 24 25 26 27 28 29 30 31 32 33 34 35 36 37 38 39 40 41 42 43 44 45 46 47 48 49 50
000
ASUS41 KGYX 231410
RWRGYX
WEATHER ROUNDUP FOR MAINE AND NEW HAMPSHIRE
NATIONAL WEATHER SERVICE GRAY ME
1000 AM EDT WED JUL 23 2014

MEZ002-005-006-010-012-015-018-020-021-024-026-027-029-231500-
MAINE

CITY           SKY/WX    TMP DP  RH WIND       PRES   REMARKS
PORTLAND       SUNNY     83  70  64 W10       29.84F
SANFORD        SUNNY     84  70  61 SW9       29.85F
BAR HARBOR     SUNNY     73  70  88 SW10      29.83F
WISCASSET      SUNNY     80  69  69 SW7       29.84F
ROCKLAND       SUNNY     75  70  83 W9        29.82F
FRYEBURG       SUNNY     82  69  64 SW8G18    29.83F
LEWISTONAUBURN SUNNY     82  70  65 SW7       29.84S
AUGUSTA        SUNNY     81  70  69 SW9       29.83F
WATERVILLE     SUNNY     79  72  78 S3        29.78F
BANGOR         SUNNY     80  69  69 S7        29.81F
GREENVILLE       N/A     77  66  68 VRB5      29.81F
MILLINOCKET    SUNNY     81  67  62 VRB5      29.79S
HOULTON        SUNNY     81  65  58 SW13G25   29.74F
PRESQUE ISLE   MOSUNNY   82  63  51 S13       29.71F
FRENCHVILLE    MOSUNNY   78  64  61 SW14G26   29.68F
CARIBOU        SUNNY     80  65  59 SW18      29.69F
$$

NHZ002-005-008-009-011-012-014-231500-
NEW HAMPSHIRE

CITY           SKY/WX    TMP DP  RH WIND       PRES   REMARKS
PORTSMOUTH     MOSUNNY   82  71  68 SW8       29.86F
ROCHESTER      SUNNY     83  71  67 VRB3      29.86F
NASHUA         SUNNY     83  71  66 VRB3      29.89F
MANCHESTER     PTSUNNY   81  69  67 SW6       29.86F
CONCORD        SUNNY     83  70  64 SW9       29.87F
LACONIA        SUNNY     81  68  65 SW6       29.85F
PLYMOUTH       PTSUNNY   80  71  75 CALM      29.85F
BERLIN         PTSUNNY   81  68  64 MISG      29.84F
WHITEFIELD     MOSUNNY   81  68  64 VRB6      29.85F
JAFFREY        SUNNY     77  68  73 SW7       29.93F
LEBANON        SUNNY     81  69  67 S9        29.85F
MT WASHINGTON  FOG       55  55 100 W28         N/A  VSB 1/16
$$

VTZ005-007-008-231500-
VERMONT

CITY           SKY/WX    TMP DP  RH WIND       PRES   REMARKS
ST JOHNSBURY     N/A     75  69  81 MISG      29.81F
MONTPELIER     SUNNY     80  68  66 S10G20    29.89S
BURLINGTON       N/A     83  70  64 S15G22    29.80S
$$

MAZ007-012-024-CTZ003-RIZ002-NYZ038-NYZ072-231500-
SOUTHERN NEW ENGLAND AND NY

CITY           SKY/WX    TMP DP  RH WIND       PRES   REMARKS
BOSTON         MOSUNNY   81  68  64 SW14      29.89F
WORCESTER      MOSUNNY   78  69  73 SW10      29.95F
NANTUCKET      MOSUNNY   71  67  87 SW15      29.99S
PROVIDENCE     MOSUNNY   80  69  69 SW9       29.95F
HARTFORD       MOSUNNY   80  68  66 S10       29.91F
ALBANY         MOSUNNY   81  71  71 S9        29.88F
NEW YORK CITY  MOSUNNY   80  67  64 SW10      29.95F
$$

ANZ081-ANZ082-ANZ150-NHZ014-MEZ023>029-231500-
COASTAL MARINE OBSERVATIONS

STATION/POSITION TIME  TEMP    WIND        PRES    WAVE
                       AIR SEA DIR/SP/G            HT/PER
                 (UTC) (F)     (DEG/KT/KT) (MB)    (FT/S)
MOUNT DESERT ROC 1400   60                 1010.8F
MATINICUS ROCK   1300          230/ 17/ 18 1010.8S
PORTLAND WX BUOY 1400   67 64  190/ 12/ 14 1010.3F   3/ 7
WELLS            1400   81 57  270/  4/  8 1010.1F
ISLE OF SHOALS   1300   73     230/ 16/ 16 1011.4F
JEFFREYS LEDGE   1400      65                N/A     3/ 8
CASHES LEDGE BUO 1400   68 67  VRB 16/ 19  1010.9F   4/ 5
$$

.............KEY..............
   WCI - WIND CHILL
   TC  - TEMPERATURE IN CELSIUS
   VSB - VISIBILITY IN MILES
   HX  - HEAT INDEX
   FAIR- INDICATES FEW OR NO CLOUDS BELOW 12,000 FT, WITH NO
         SIGNIFICANT WEATHER AND/OR OBSTRUCTIONS TO VISIBILITY.




USA.gov is the U.S. government's official web portal to all federal, state and local government web resources and services.